Willimantic, CT

7:34 PM EDT on May 23, 2018 (GMT -0400)
Windham

Weather History for KIJD - March, 2014

Change the Weather History Date:

Monday, March 17, 2014

  Actual Average Record
Temperature  
Mean Temperature 26 °F -  
Max Temperature 34 °F 47 °F 76 °F (1990)
Min Temperature 19 °F 24 °F 6 °F (1967)
Degree Days  
Heating Degree Days 38    
Moisture  
Dew Point 1 °F    
Average Humidity 38    
Maximum Humidity 65    
Minimum Humidity 20    
Precipitation  
Precipitation 0.00 in - - ()
Sea Level Pressure  
Sea Level Pressure 30.12 in    
Wind  
Wind Speed 8 mph (NNE)    
Max Wind Speed 15 mph    
Max Gust Speed -    
Visibility 10 miles    
Events      
Averages and records for this station are not official NWS values.
T = Trace of Precipitation, MM = Missing Value Source: NWS Daily Summary

Daily Weather History Graph

Daily Weather History Graph

Search for Another Location

Airport or City:

Astronomy

Mar. 17, 2014 Rise Set
Actual Time 6:57 AM EDT 6:57 PM EDT
Civil Twilight 6:29 AM EDT 7:25 PM EDT
Nautical Twilight 5:57 AM EDT 7:57 PM EDT
Astronomical Twilight 5:24 AM EDT 8:30 PM EDT
Moon 8:12 PM EDT (3/17) 7:10 AM EDT (3/17)
Length of Visible Light 12h 55m
Length of Day
12h 00m
Full, 99% of the Moon is Illuminated
Mar 17
Full
Mar 23
Last Quarter
Mar 30
New
Apr 7
First Quarter
Apr 15
Full

Hourly Weather History & Observations

Time (EDT) Temp. Windchill Dew Point Humidity Pressure Visibility Wind Dir Wind Speed Gust Speed Precip Events Conditions
12:52 AM 24.1 °F 14.4 °F 3.0 °F 40% 30.17 in 10.0 mi North 9.2 mph - N/A   Clear
1:52 AM 24.1 °F 16.0 °F 3.0 °F 40% 30.18 in 10.0 mi North 6.9 mph - N/A   Scattered Clouds
2:52 AM 24.1 °F 15.2 °F 3.9 °F 42% 30.15 in 10.0 mi North 8.1 mph - N/A   Overcast
3:52 AM 23.0 °F 11.7 °F 3.9 °F 44% 30.13 in 10.0 mi NNE 11.5 mph - N/A   Partly Cloudy
4:52 AM 21.9 °F 10.4 °F 3.0 °F 44% 30.12 in 10.0 mi NNE 11.5 mph - N/A   Scattered Clouds
5:52 AM 21.0 °F 8.6 °F -0.9 °F 38% 30.12 in 10.0 mi North 12.7 mph - N/A   Mostly Cloudy
6:52 AM 19.9 °F 9.3 °F 1.0 °F 44% 30.12 in 10.0 mi NNE 9.2 mph - N/A   Mostly Cloudy
7:52 AM 19.0 °F 6.1 °F -4.0 °F 36% 30.15 in 10.0 mi NNE 12.7 mph - N/A   Overcast
8:52 AM 19.9 °F 7.3 °F -2.0 °F 38% 30.16 in 10.0 mi NNE 12.7 mph - N/A   Scattered Clouds
9:52 AM 19.9 °F 6.2 °F -5.1 °F 33% 30.16 in 10.0 mi North 15.0 mph - N/A   Clear
10:52 AM 21.9 °F 11.0 °F -2.9 °F 34% 30.13 in 10.0 mi NE 10.4 mph - N/A   Clear
11:52 AM 23.0 °F 12.4 °F -2.0 °F 34% 30.11 in 10.0 mi NNE 10.4 mph - N/A   Clear
12:52 PM 26.1 °F 20.5 °F -0.9 °F 31% 30.12 in 10.0 mi Variable 4.6 mph - N/A   Partly Cloudy
1:52 PM 28.9 °F 22.8 °F -0.0 °F 29% 30.07 in 10.0 mi Variable 5.8 mph - N/A   Clear
2:52 PM 30.0 °F 23.2 °F -2.0 °F 25% 30.06 in 10.0 mi ENE 6.9 mph - N/A   Clear
3:52 PM 32.0 °F 28.7 °F -2.0 °F 23% 30.06 in 10.0 mi Variable 3.5 mph - N/A   Clear
4:52 PM 33.1 °F 28.7 °F -2.9 °F 21% 30.05 in 10.0 mi North 4.6 mph - N/A   Clear
5:52 PM 34.0 °F - -4.0 °F 20% 30.06 in 10.0 mi Calm Calm - N/A   Clear
6:52 PM 32.0 °F - -0.9 °F 24% 30.08 in 10.0 mi Calm Calm - N/A   Clear
7:52 PM 28.0 °F - 3.0 °F 34% 30.09 in 10.0 mi Calm Calm - N/A   Clear
8:52 PM 25.0 °F - 9.0 °F 51% 30.12 in 10.0 mi Calm Calm - N/A   Clear
9:52 PM 21.9 °F - 10.9 °F 63% 30.13 in 10.0 mi Calm Calm - N/A   Clear
10:52 PM 21.9 °F - 8.1 °F 55% 30.15 in 10.0 mi Calm Calm - N/A   Clear
11:52 PM 19.9 °F 14.9 °F 10.0 °F 65% 30.17 in 10.0 mi NE 3.5 mph - N/A   Clear